SES-1

Last updated on Sat Apr 13 2024 01:02:37 GMT+0100 (British Summer Time)

1 36516U 10016A 24103.57224088 -.00000123 00000+0 00000+0 0 9990 2 36516 0.0469 58.3769 0002583 324.4459 283.4220 1.00271895 51054
UTC large
Height (km)
Speed (km/s)
/
Latitude / Longitude
Inclination (degrees)
Orbital Period (minutes)
Azimuth
Elevation
Range (km)
Doppler Factor

Next 0 passes for location: London (51.5072 / 0.1276)

Sorry there are no passes over London.